Regional Weather Roundup
Issued by NWS

Home | Current Version | Previous Version | Graphics & Text | Print | Product List | Glossary On
Versions: 1 2 3 4 5 6 7 8 9 10 11 12 13 14 15 16 17 18 19 20 21 22 23 24 25 26 27 28 29 30 31 32 33 34 35 36 37 38 39 40 41 42 43 44 45 46 47 48 49 50
000
ASUS43 KMKX 240521
RWRWI

WISCONSIN REGIONAL WEATHER ROUNDUP
NATIONAL WEATHER SERVICE MILWAUKEE/SULLIVAN WI
1100 PM CST SUN NOV 23 2014

NOTE: "FAIR" INDICATES FEW OR NO CLOUDS BELOW 12,000 FEET WITH NO
SIGNIFICANT WEATHER AND/OR OBSTRUCTIONS TO VISIBILITY.

WIZ001-002-006>008-014>016-023>028-240600-
NORTHWEST WISCONSIN

CITY           SKY/WX    TMP DP  RH WIND       PRES   REMARKS
SUPERIOR ARPT  DRIZZLE   37  34  92 N6        29.31F WCI  32
ASHLAND        CLOUDY    37  37 100 NW3       29.29F FOG
HAYWARD        LGT RAIN  37  35  92 N7        29.26F FOG     WCI  32
SIREN          RAIN      37  35  95 NW9       29.30F WCI  30
CUMBERLAND     RAIN      34  34 100 N13G18    29.26F WCI  25
RICE LAKE      LGT RAIN  36  36  99 NW6       29.28F WCI  31
CHETEK         DRIZZLE   36  36 100 NW5       29.24F WCI  32
LADYSMITH      DRIZZLE   40  39  98 NW9       29.22F WCI  34
EAU CLAIRE     CLOUDY    39  37  92 NW7       29.23F WCI  34
MENOMONIE      CLOUDY    38  38  99 W12G17    29.26S FOG     WCI  30
NEW RICHMOND   LGT RAIN  36  36 100 NW12      29.30F WCI  28
OSCEOLA        RAIN      37  37 100 NW12      29.34F WCI  29
$$

WIZ003>005-009-010-017-018-240600-
NORTH CENTRAL WISCONSIN

CITY           SKY/WX    TMP DP  RH WIND       PRES   REMARKS
MANITOWISH WTR FOG       35  35 100 CALM      29.21F VSB 1/4
ARBOR VITAE    HVY RAIN  41  40  97 CALM      29.20F
WOODRUFF       HVY RAIN  41  40  97 CALM      29.20F
RHINELANDER    LGT RAIN  39  39 100 NE3       29.19F VSB 1/2
EAGLE RIVER    RAIN      39  39 100 CALM      29.20F VSB 1/4
LAND O LAKES   RAIN      38  38 100 CALM      29.22F VSB 1/2
PHILLIPS       FOG       39  39 100 CALM      29.20F VSB 1/2
TOMAHAWK       DRZL/FOG  38  38  97 CALM      29.20F VSB 1/2
MEDFORD        LGT RAIN  41  41 100 NE3       29.18F VSB 1/2
MERRILL        LGT RAIN  40  40 100 CALM      29.19F VSB 1/2
$$

WIZ029-030-035-036-043>047-240600-
CENTRAL WISCONSIN

CITY           SKY/WX    TMP DP  RH WIND       PRES   REMARKS
WAUSAU         CLOUDY    42  42 100 CALM      29.17F FOG
MOSINEE        DRZL/FOG  41  41 100 CALM      29.19F VSB 1/4
MARSHFIELD     LGT RAIN  43  42  97 E3        29.17F VSB 1/4
STEVENS POINT  LGT RAIN  41  41 100 CALM      29.18F VSB 1/2
WAUPACA        LGT RAIN  45  44  95 CALM      29.18F VSB 1/2
WAUTOMA        LGT RAIN  45  45 100 N3        29.18F FOG
WISC RAPIDS    LGT RAIN  44  42  93 E5        29.19F FOG
CAMP DOUGLAS   FOG       45  45 100 CALM      29.16F VSB 1/2
$$

WIZ011>013-019>022-031-037>040-048>050-240600-
NORTHEAST WISCONSIN

CITY           SKY/WX    TMP DP  RH WIND       PRES   REMARKS
ANTIGO         DRZL/FOG  37  37 100 E3        29.18F VSB 3/4
SHAWANO        RAIN      42  41  96 CALM      29.19F VSB 1/4
OCONTO         CLOUDY    41  41 100 N3        29.18F VSB 1/2
STURGEON BAY   CLOUDY    46  45  93 E3        29.17F VSB 3/4
GREEN BAY      LGT RAIN  46  45  96 CALM      29.17F VSB 3/4
MANITOWOC      LGT RAIN  43  43 100 N3        29.15F VSB 3/4
APPLETON       LGT RAIN  43  43 100 CALM      29.17F VSB 1/2
CLINTONVILLE   LGT RAIN  43  43 100 CALM      29.19F VSB 1/2
OSHKOSH        LGT RAIN  44  42  93 N3        29.15F VSB 1/2
$$

WIZ032>034-041-042-053>061-240600-
SOUTHWEST WISCONSIN

CITY           SKY/WX    TMP DP  RH WIND       PRES   REMARKS
LA CROSSE      LGT RAIN  41  40  96 NW16      29.21F FOG
SPARTA         DRZL/FOG  44  44 100 CALM      29.19F VSB 1/2
VIROQUA        CLOUDY    44  44 100 CALM      29.17F VSB 1/4
BOSCOBEL       CLOUDY    46  45  96 CALM      29.17F FOG
PRAIRIE DU CHI CLOUDY    42  41  96 NW14      29.19F FOG
PLATTEVILLE    CLOUDY    45  45  97 CALM      29.16F VSB 1/4
$$

WIZ056-057-062-063-064-067-068-240600-
SOUTH CENTRAL WISCONSIN

CITY           SKY/WX    TMP DP  RH WIND       PRES   REMARKS
REEDSBURG      FOG       44  44 100 CALM      29.15F VSB 1/2
BARABOO/DELLS  DRZL/FOG  45  44  97 CALM      29.15F VSB 1/4
LONE ROCK      CLOUDY    48  44  86 CALM      29.15F FOG
MINERAL POINT  FOG       46  45  93 CALM      29.14F VSB 1/4
MADISON        LGT RAIN  46  45  96 CALM      29.14F VSB 3/4
MIDDLETON      CLOUDY    46  46 100 NE3       29.14F VSB 1/2
WATERTOWN      RAIN      45  45 100 CALM      29.13F
MONROE         DRZL/FOG  45  45 100 CALM      29.13F VSB 1/4
JANESVILLE     RAIN      46  45  93 CALM      29.13F
$$

WIZ051-052-058>065-066-070>072-240600-
SOUTHEAST WISCONSIN

CITY           SKY/WX    TMP DP  RH WIND       PRES   REMARKS
MILWAUKEE      LGT RAIN  46  44  93 CALM      29.12F VSB 1/2
WAUKESHA       RAIN      43  43 100 NW3       29.14F VSB 1/2
MILWAUKEE/TIMM RAIN      45  43  93 CALM      29.13F
RACINE         LGT RAIN  46  45  96 CALM      29.13F VSB 3/4
BURLINGTON     LGT RAIN  44  44 100 CALM      29.12F VSB 1/2
KENOSHA        LGT RAIN  47  46  97 CALM      29.11F VSB 3/4
FOND DU LAC    LGT RAIN  45  43  93 CALM      29.15F VSB 1/2
SHEBOYGAN      LGT RAIN  43  42  97 NW5       29.15F VSB 3/4
WEST BEND      LGT RAIN  43  41  93 CALM      29.13F
JUNEAU         DRZL/FOG  44  44  99 CALM      29.15F VSB 1/4
$$

LSZ147-162-240600-
LAKE SUPERIOR

STATION/POSITION TIME  TEMP    WIND        PRES    WAVE
                       AIR SEA DIR/SP/G            HT/PER
                 (UTC) (F)     (DEG/KT/KT) (MB)    (FT/S)
DEVILS ISLAND    0500   39     330/ 13/ 14  991.9F
PORT WING        0400   37     320/  9/ 10  993.2F
SAXON HARBOR     0440   38     300/  7/  8  991.5F
$$

LMZ867-665-643>646-240600-
LAKE MICHIGAN

STATION/POSITION TIME  TEMP    WIND        PRES    WAVE
                       AIR SEA DIR/SP/G            HT/PER
                 (UTC) (F)     (DEG/KT/KT) (MB)    (FT/S)
CHAMBERS ISLAND  0400   45     130/  4/  8  991.2F
N MID LAKE BUOY  0450   44 42  100/ 10/ 12  989.6F   3/ 6
NORTHPORT PIER   0500   43     140/  2/  7  989.2F
SISTER BAY       0443          120/  3/  5   N/A
KEWAUNEE LAKESHO 0500   44      90/  4/  7  987.2F
SHEBOYGAN LAKESH 0500   45 39   CALM  /  2  987.1F
PORT WASHINGTON  0420   46      CALM  /  4  988.8F
ATWATER BUOY     0300   46     130/  4/  6  993.5F
MILWAUKEE LAKESH 0500   45     340/  3/  3   N/A
S MID LAKE BUOY  0450   45 42  120/  8/  8  986.2F   1/ 3
KENOSHA   LAKESH 0500   45        CALM      986.5F
$$

TC  - TEMPERATURE IN CELSIUS
VSB - VISIBILITY IN STATUTE MILES
WCI - WIND CHILL INDEX
HX  - HEAT INDEX




USA.gov is the U.S. government's official web portal to all federal, state and local government web resources and services.